Back to catalog

STARLINK-34396

AliveCommunicationsVLEO
NORAD 64436·PAYLOAD·🇺🇸 United States

Launched Jun 17, 2025 from Vandenberg Space Force Base

Loading…

Next Passes (next 24 hours)

TLE

FreshSource: CelesTrak SupGP

Epoch: Sep 15, 2026, 03:49 UTC

1 64436C 25129AA  26258.15951389  .00025115  00000+0  87301-3 0  2589
2 64436  69.9992 315.2794 0003448 265.9675 120.4877 15.29589769    10

Track STARLINK-34396 in real time with AllMySat

Download on the App Store